Location: Axtheid
(49.6213°N, 11.8205°E)
Time: 13:23:23
(UTC+00:00)

Cosmos 2263 Rocket - Pass Details

Date: 24 January 2021
Orbit: 825 x 847 km, 71.0° (Epoch: 25 February)

Event Time Altitude Azimuth Distance (km) Brightness Sun altitude
Rises 17:53:21 0° 260° (W) 3,403 7.0 -18.9°
Reaches altitude 10° 17:56:31 10° 277° (W) 2,468 5.8 -19.4°
Maximum altitude 18:00:33 20° 323° (NW) 1,881 4.3 -20.1°
Drops below altitude 10° 18:04:35 10° 9° (N) 2,466 4.5 -20.7°
Enters shadow 18:05:51 - 17° (NNE) 2,814 4.7 -20.9°
